Flag for Finland Weather past 2 weeks in Lahti, Finland

Now
61 °F

Clear.


Feels Like: 61 °F
Forecast: 64 / 80 °F
Wind: 3 mph from Southwest

Location: Utti

Current Time: Jul 3, 2015 at 3:14:12 AM

Latest Report: Jul 3, 2015 at 2:20 AM


Visibility: 10 mi

Pressure: 30.24 "Hg

Humidity: 72%

Dew point: 52 °F

Location of LahtiLocation

Historic Weather in Lahti — Graph

°F

Lahti temperature yesterday

Maximum temperature yesterday: 75 °F (at 4:20 PM)
Minimum temperature yesterday: 50 °F (at 3:20 AM)
Average temperature yesterday: 65 °F

Past Weeks' High & Low Weather Summary

 TemperatureHumidityPressure
High75 °F (Jun 29, 3:50 PM)100% (Jun 18, 4:50 PM)30.33 "Hg (Jun 18, 4:50 PM)
Low45 °F (Jun 18, 1:50 AM)31% (Jun 29, 3:50 PM)29.68 "Hg (Jun 24, 8:50 AM)
Average58 °F80%29.89 "Hg
* Reported Jun 18 1:20 AM — Jul 3 1:50 AM, Lahti, Weather by CustomWeather, © 2015

Note: Actual official high and low records may vary slightly from our data, if they occured in-between our weather recording intervals... More about our weather records

Advertising

Lahti weather history for previous 24 hours

 ConditionsComfort  
Time TempWeatherWind HumidityBarometerVisibility
1:50 AM
Fri, Jul 3
61 °FClear.2 mph72%30.27 "Hg10 mi
1:20 AM61 °FClear.3 mph72%30.27 "Hg10 mi
12:50 AM61 °FClear.3 mph72%30.27 "Hg10 mi
12:20 AM63 °FClear.7 mph68%30.27 "Hg10 mi
11:50 PM
Thu, Jul 2
63 °FClear.8 mph68%30.27 "Hg10 mi
11:20 PM64 °FPassing clouds.7 mph64%30.27 "HgN/A
10:50 PM64 °FSunny.8 mph64%30.27 "Hg10 mi
10:20 PM66 °FSunny.8 mph60%30.27 "Hg10 mi
9:50 PM68 °FSunny.8 mph56%30.27 "Hg10 mi
9:20 PM68 °FSunny.10 mph56%30.27 "Hg10 mi
8:50 PM70 °FSunny.9 mph53%30.27 "Hg10 mi
8:20 PM70 °FSunny.12 mph50%30.27 "Hg10 mi
7:50 PM72 °FPassing clouds.10 mph50%30.27 "HgN/A
7:20 PM72 °FPassing clouds.10 mph50%30.27 "HgN/A
6:50 PM72 °FPassing clouds.10 mph50%30.27 "HgN/A
6:20 PM73 °FPassing clouds.13 mph47%30.27 "HgN/A
5:50 PM73 °FPassing clouds.12 mph47%30.30 "HgN/A
5:20 PM75 °FPassing clouds.9 mph39%30.30 "HgN/A
4:50 PM75 °FPassing clouds.8 mph39%30.30 "HgN/A
4:20 PM75 °FPassing clouds.9 mph39%30.30 "HgN/A
3:50 PM73 °FPassing clouds.8 mph41%30.30 "HgN/A
3:20 PM73 °FPassing clouds.8 mph44%30.30 "HgN/A
2:50 PM72 °FPassing clouds.6 mph44%30.30 "HgN/A
2:20 PM72 °FPassing clouds.6 mph41%30.33 "HgN/A
1:50 PM70 °FPassing clouds.5 mph43%30.33 "HgN/A
1:20 PM72 °FPassing clouds.8 mph44%30.33 "HgN/A
12:50 PM70 °FPassing clouds.7 mph43%30.33 "HgN/A
12:20 PM70 °FPassing clouds.5 mph43%30.33 "HgN/A
11:50 AM70 °FSunny.3 mph43%30.33 "Hg10 mi
11:20 AM68 °FPassing clouds.5 mph43%30.33 "HgN/A
10:50 AM66 °FSunny.2 mph49%30.33 "Hg10 mi
10:20 AM66 °FSunny.1 mph52%30.33 "Hg10 mi
10:07 AM64 °FSunny.2 mph56%30.33 "Hg10 mi
9:50 AM63 °FSunny.2 mph59%30.33 "Hg10 mi
9:20 AM61 °FSunny.2 mph63%30.33 "Hg10 mi
8:50 AM59 °FSunny.2 mph72%30.33 "Hg10 mi
8:20 AM59 °FSunny.3 mph72%30.33 "Hg10 mi
4:20 AM50 °FClear.6 mph100%30.27 "Hg10 mi
3:50 AM50 °FClear.3 mph100%30.27 "Hg10 mi
3:20 AM50 °FClear.3 mph94%30.27 "Hg10 mi
Weather by CustomWeather, © 2015

See weather overviewHow to use our weather pages